Location: ????????
(56.1167°N, 38.6333°E)
Time: 19:54:46
(UTC+00:00)

TIMED - Pass Details

Date: 18 November 2025
Orbit: 582 x 584 km, 74.1° (Epoch: 14 December)

Event Time Altitude Azimuth Distance (km) Brightness Sun altitude
Rises 14:54:52 0° 203° (SSW) 2,800 8.5 -13.8°
Reaches altitude 10° 14:57:05 10° 202° (SSW) 1,905 7.6 -14.1°
Maximum altitude 15:01:19 79° 117° (ESE) 603 4.4 -14.7°
Enters shadow 15:04:45 16° 31° (NNE) 1,579 6.3 -15.2°
